Weather History for KSAW - December, 2011

Change the Weather History Date:

Tuesday, December 6, 2011

  Actual Average (KESC) Record (KESC)
Temperature  
Mean Temperature 17 °F -  
Max Temperature 22 °F 31 °F 55 °F (2011)
Min Temperature 11 °F 17 °F -4 °F (1972)
Degree Days  
Heating Degree Days 48    
Moisture  
Dew Point 12 °F    
Average Humidity 81    
Maximum Humidity 86    
Minimum Humidity 68    
Precipitation  
Precipitation 0.00 in - - ()
Sea Level Pressure  
Sea Level Pressure 30.21 in    
Wind  
Wind Speed 8 mph (West)    
Max Wind Speed 10 mph    
Max Gust Speed -    
Visibility 8 miles    
Events Snow    
Averages and records for this station are not official NWS values.
T = Trace of Precipitation, MM = Missing Value Source: NWS Daily Summary

Daily Weather History Graph

Daily Weather History Graph

Search for Another Location

Airport or City:

Trip Planner

Search our weather history database for the weather conditions in past years. The results will help you decide how hot, cold, wet, or windy it might be!

Date:

Astronomy

Dec. 06, 2011 Rise Set
Actual Time 8:17 AM EST 5:03 PM EST
Civil Twilight 7:43 AM EST 5:37 PM EST
Nautical Twilight 7:05 AM EST 6:15 PM EST
Astronomical Twilight 6:28 AM EST 6:52 PM EST
Moon 2:37 PM EST (12/6) 4:27 AM EST (12/6)
Length of Visible Light 9h 54m
Length of Day
8h 45m
Waxing Gibbous, 86% of the Moon is Illuminated
Dec 6
Waxing Gibbous
Dec 10
Full
Dec 17
Last Quarter
Dec 24
New
Jan 1
First Quarter

Hourly Weather History & Observations

Time (EST) Temp. Windchill Dew Point Humidity Pressure Visibility Wind Dir Wind Speed Gust Speed Precip Events Conditions
12:17 AM 18.9 °F 10.8 °F 15.3 °F 86% 30.36 in 4.0 mi NW 5.8 mph - N/A Snow Light Snow
12:37 AM 18.7 °F 7.8 °F 15.1 °F 86% 30.36 in 4.0 mi NW 9.2 mph - N/A Snow Light Snow
12:57 AM 18.5 °F 7.5 °F 14.7 °F 85% 30.35 in 4.0 mi NW 9.2 mph - N/A Snow Light Snow
1:17 AM 18.3 °F 7.3 °F 14.5 °F 85% 30.34 in 4.0 mi NW 9.2 mph - N/A Snow Light Snow
1:37 AM 18.1 °F 7.1 °F 14.0 °F 84% 30.34 in 7.0 mi NW 9.2 mph - N/A Snow Light Snow
1:56 AM 18.1 °F 7.1 °F 13.8 °F 83% 30.33 in 7.0 mi NW 9.2 mph - N/A Snow Light Snow
2:17 AM 18.0 °F 6.1 °F 13.6 °F 83% 30.33 in 7.0 mi NW 10.4 mph - N/A Snow Light Snow
2:37 AM 18.0 °F 6.9 °F 13.6 °F 83% 30.33 in 7.0 mi NW 9.2 mph - N/A Snow Light Snow
2:57 AM 18.0 °F 7.7 °F 13.6 °F 83% 30.33 in 5.0 mi NW 8.1 mph - N/A Snow Light Snow
3:17 AM 18.0 °F 7.7 °F 13.5 °F 83% 30.33 in 7.0 mi NW 8.1 mph - N/A Snow Light Snow
3:37 AM 18.0 °F 7.7 °F 13.3 °F 82% 30.33 in 7.0 mi NW 8.1 mph - N/A Snow Light Snow
3:56 AM 17.8 °F 6.6 °F 13.1 °F 82% 30.32 in 7.0 mi NW 9.2 mph - N/A Snow Light Snow
4:17 AM 17.6 °F 7.3 °F 13.1 °F 83% 30.32 in 5.0 mi NW 8.1 mph - N/A Snow Light Snow
4:37 AM 17.6 °F 7.3 °F 13.1 °F 83% 30.32 in 7.0 mi NW 8.1 mph - N/A Snow Light Snow
4:57 AM 17.6 °F 7.3 °F 13.1 °F 83% 30.31 in 7.0 mi NW 8.1 mph - N/A Snow Light Snow
5:17 AM 17.6 °F 8.2 °F 12.9 °F 82% 30.32 in 7.0 mi NW 6.9 mph - N/A Snow Light Snow
5:36 AM 17.6 °F 8.2 °F 12.9 °F 82% 30.31 in 7.0 mi NW 6.9 mph - N/A Snow Light Snow
5:57 AM 17.6 °F 9.3 °F 12.9 °F 82% 30.31 in 7.0 mi NW 5.8 mph - N/A Snow Light Snow
6:50 AM 17.6 °F 12.3 °F 12.2 °F 79% 30.30 in 7.0 mi WNW 3.5 mph - N/A Snow Light Snow
7:50 AM 17.6 °F 12.3 °F 12.2 °F 79% 30.30 in 7.0 mi WNW 3.5 mph - N/A Snow Light Snow
8:50 AM 17.6 °F 9.3 °F 12.2 °F 79% 30.29 in 7.0 mi WNW 5.8 mph - N/A Snow Light Snow
9:50 AM 17.6 °F 10.7 °F 12.2 °F 79% 30.27 in 7.0 mi WNW 4.6 mph - N/A Snow Light Snow
10:50 AM 19.4 °F 12.8 °F 12.2 °F 74% 30.26 in 10.0 mi West 4.6 mph - N/A Snow Light Snow
12:50 PM 21.2 °F 13.6 °F 14.0 °F 74% 30.21 in 3.0 mi WSW 5.8 mph - N/A Snow Light Snow
1:50 PM 21.2 °F 16.4 °F 15.8 °F 80% 30.18 in 5.0 mi SW 3.5 mph - N/A Snow Light Snow
2:55 PM 21.2 °F 12.6 °F 14.0 °F 74% 30.13 in 10.0 mi SSW 6.9 mph - N/A Snow Light Snow
3:50 PM 23.0 °F 13.1 °F 14.0 °F 68% 30.11 in 10.0 mi SSW 9.2 mph - N/A   Overcast
4:50 PM 21.2 °F 14.9 °F 12.2 °F 68% 30.11 in 10.0 mi SSW 4.6 mph - N/A   Overcast
5:50 PM 15.8 °F 6.1 °F 10.4 °F 79% 30.09 in 10.0 mi SSW 6.9 mph - N/A   Clear
6:50 PM 15.8 °F 6.1 °F 10.4 °F 79% 30.08 in 10.0 mi SSW 6.9 mph - N/A   Clear
7:50 PM 14.0 °F 3.9 °F 8.6 °F 79% 30.04 in 10.0 mi SSW 6.9 mph - N/A   Clear
8:50 PM 12.2 °F 0.7 °F 6.8 °F 79% 30.00 in 10.0 mi South 8.1 mph - N/A   Clear
9:50 PM 12.2 °F -1.0 °F 6.8 °F 79% 29.98 in 10.0 mi South 10.4 mph - N/A   Clear
10:17 PM 11.7 °F -0.9 °F 6.8 °F 81% 29.96 in 10.0 mi SSW 9.2 mph - N/A   Clear
10:37 PM 11.8 °F 0.3 °F 7.5 °F 83% 29.96 in 10.0 mi SSW 8.1 mph - N/A   Clear
10:57 PM 12.2 °F 1.7 °F 7.9 °F 83% 29.96 in 10.0 mi SSW 6.9 mph - N/A   Clear
11:17 PM 12.7 °F 1.4 °F 8.6 °F 84% 29.96 in 10.0 mi South 8.1 mph - N/A   Scattered Clouds
11:37 PM 13.6 °F 1.6 °F 9.5 °F 84% 29.95 in 10.0 mi South 9.2 mph - N/A   Mostly Cloudy
11:56 PM 13.5 °F 2.2 °F 9.3 °F 84% 29.95 in 10.0 mi South 8.1 mph - N/A   Scattered Clouds